Wind_Speed
20 19 19 19 19 20 21 21 22 21 21 20 20 21 21 21 21 21 21 22 22 23 22 22 23 23 24 24 23 23 24 25 27 28 29 30 31 32 33 35 37 39 41 42
19 18 17 18 18 19 20 21 20 19 19 19 19 18 18 18 18 19 19 20 20 20 21 21 22 22 22 22 22 22 21 21 21 22 23 24 26 27 29 31 33 35 38 40
17 16 16 16 16 17 18 18 18 18 17 16 15 15 15 15 16 17 17 18 19 20 20 20 21 22 22 22 22 21 20 19 19 18 19 20 21 23 25 27 30 33 35 38
15 14 14 14 15 16 16 15 15 14 14 13 13 12 13 13 14 15 17 18 19 19 19 20 21 22 22 22 21 20 20 19 17 16 16 17 17 19 21 24 26 29 32 35
13 12 12 12 12 12 12 12 12 12 11 11 11 11 11 11 13 15 16 17 19 20 20 20 22 23 22 22 21 20 20 18 17 16 15 15 15 17 19 21 23 25 28 30
11 10 9 8 9 9 9 9 9 9 9 9 10 10 10 12 14 15 16 18 19 20 20 21 22 23 22 22 21 21 20 19 18 17 16 15 15 15 16 18 20 23 24 27
8 7 5 5 6 6 7 7 8 8 9 9 10 10 11 13 14 15 16 18 19 20 21 21 22 23 23 22 23 22 21 20 19 18 17 16 15 14 14 15 16 18 21 24
7 4 2 3 3 4 5 6 7 8 9 9 10 11 12 13 14 15 17 18 19 20 21 21 22 23 23 23 23 23 22 21 20 19 18 17 16 16 15 14 15 15 17 20
5 2 1 1 2 3 4 6 7 7 8 9 10 11 12 13 14 15 17 18 20 20 21 22 22 23 24 24 24 24 23 22 21 20 20 19 18 17 16 15 14 14 14 16
5 3 3 3 3 3 4 5 6 7 8 9 10 11 12 14 15 16 17 18 19 21 21 21 22 23 24 24 24 24 23 23 22 21 21 20 19 19 17 16 15 14 14 13
6 5 4 4 3 3 3 5 6 7 8 9 10 11 12 14 15 16 17 19 19 20 21 21 22 23 24 24 25 25 24 24 24 23 23 22 21 20 19 18 16 15 14 13
7 6 5 4 4 4 4 5 6 7 8 9 10 11 12 13 15 16 18 19 19 19 20 21 22 23 23 24 24 25 25 25 24 24 24 23 23 22 21 19 17 16 15 13
7 6 5 5 4 4 4 5 6 7 8 9 9 11 12 13 15 16 17 18 19 19 20 21 22 23 24 24 25 25 25 25 25 25 25 25 24 23 22 21 19 17 16 14
7 6 5 5 4 4 3 4 6 7 7 8 9 10 12 13 15 16 17 18 19 20 20 21 21 22 23 24 25 26 26 26 26 26 26 26 25 24 23 22 20 19 18 16
6 5 4 4 3 3 3 4 5 6 7 8 9 10 11 13 14 16 17 18 19 20 20 21 22 22 23 24 25 25 26 27 27 27 27 26 26 26 25 23 21 20 19 18
5 4 3 2 2 2 3 4 5 6 7 8 9 10 12 13 14 15 17 18 19 20 21 21 22 22 23 23 24 25 26 27 27 27 27 27 27 27 26 25 23 21 20 18
4 4 3 2 1 0 2 3 4 6 7 8 9 10 11 13 14 15 17 18 19 20 20 21 22 22 23 23 24 25 26 26 27 28 28 28 28 27 27 26 25 23 21 19
4 4 4 3 2 2 3 4 5 6 7 8 9 10 11 13 14 15 17 18 19 19 20 20 21 22 23 23 24 24 25 26 27 28 28 28 28 28 28 27 26 25 23 21
6 6 6 6 5 5 5 6 6 8 9 9 10 11 12 13 15 15 17 17 18 19 19 20 20 21 22 23 23 24 25 26 27 28 28 28 28 28 29 28 27 26 24 23
8 8 9 9 9 9 9 9 9 10 11 11 12 13 14 14 15 16 17 17 18 19 20 20 21 21 21 22 23 23 24 25 26 27 28 28 28 28 28 28 27 26 26 24
11 11 11 12 12 12 12 12 13 13 14 14 15 15 16 16 17 17 18 18 19 19 20 21 21 21 21 22 22 23 23 24 25 26 27 28 28 28 28 28 27 27 27 26
14 14 14 14 14 14 14 14 15 16 16 17 17 18 18 18 19 19 19 20 20 20 21 21 21 22 22 22 23 23 23 24 24 25 26 27 27 28 28 28 27 27 27 26
16 16 16 16 16 16 16 17 17 18 18 19 19 20 20 21 21 21 22 22 22 22 22 22 22 22 23 23 23 23 23 24 24 24 25 25 26 26 27 27 27 26 26 26
18 18 18 18 18 18 19 20 20 21 21 21 21 21 22 22 23 23 24 24 24 24 24 24 24 24 24 24 24 24 24 24 24 24 25 25 25 25 26 26 25 25 25 25
19 20 20 20 20 20 21 22 23 23 24 24 23 23 23 24 24 25 25 25 25 26 26 25 25 25 26 25 25 25 25 25 24 24 24 24 24 24 24 24 24 24 24 23
19 20 21 20 21 22 23 24 24 25 25 25 26 26 26 26 26 27 27 28 28 28 28 28 28 27 27 27 27 27 26 25 25 25 24 24 24 24 23 23 23 22 22 21
Wind_Direction
250 259 269 278 285 292 298 304 309 313 315 316 318 320 322 323 324 325 326 326 326 327 327 327 326 324 321 318 314 308 302 297 290 283 276 271 267 262 258 254 251 250 248 246
248 258 269 279 288 295 302 308 313 316 319 321 323 325 327 329 330 330 332 332 334 336 337 337 336 335 333 331 327 322 314 307 300 290 283 276 271 265 259 255 252 251 249 247
247 258 269 279 289 298 306 312 317 321 324 327 330 333 332 335 336 337 339 340 340 342 343 344 343 342 341 339 337 334 328 321 313 303 292 283 276 270 265 260 255 252 250 247
246 257 269 283 294 305 312 317 322 326 329 334 338 340 340 341 343 346 348 349 350 351 351 351 350 350 349 347 345 344 341 335 328 319 308 295 285 278 271 265 260 256 252 248
241 255 272 287 301 312 320 326 331 334 338 343 348 350 353 350 352 355 357 358 359 359 359 358 357 356 355 354 353 352 350 346 340 333 325 313 301 290 281 273 266 261 256 250
239 257 275 295 312 323 331 337 342 346 351 357 0 2 3 359 360 2 4 4 3 3 2 1 0 1 1 1 360 358 355 353 350 345 338 331 321 308 295 284 274 266 259 253
237 256 280 310 326 336 345 351 356 4 9 12 12 12 9 5 7 8 7 6 4 3 3 3 4 4 4 3 2 1 359 358 355 352 347 341 334 324 312 300 287 276 266 259
227 244 287 331 346 356 5 10 16 19 21 23 21 19 14 12 11 10 8 5 4 4 3 4 5 5 5 5 4 3 1 360 358 356 354 351 347 340 330 319 306 293 279 267
206 209 187 49 42 34 30 27 26 28 28 30 27 23 18 14 11 9 6 4 4 4 5 6 8 8 7 6 6 5 5 4 2 359 357 354 350 346 340 332 323 311 297 280
184 170 141 118 96 65 44 32 29 29 29 31 28 23 17 15 12 9 6 5 4 5 6 8 9 9 9 9 8 8 7 7 5 3 0 357 353 349 344 339 331 322 311 298
168 157 139 123 106 88 57 39 34 34 33 31 27 25 19 18 15 11 8 6 5 5 7 8 9 10 10 10 11 11 10 9 8 6 3 0 357 353 349 344 337 328 321 309
156 147 133 120 107 92 70 50 40 36 33 31 29 28 21 17 14 12 10 9 9 9 9 11 11 11 11 10 10 10 10 9 9 8 6 4 1 358 355 352 346 338 330 321
147 138 130 120 104 89 70 50 40 37 35 31 28 26 21 17 14 12 12 13 13 12 12 12 12 12 12 11 11 10 10 9 8 8 7 5 4 2 360 357 353 348 339 330
146 138 128 116 105 89 62 39 32 31 29 26 24 21 17 15 13 12 12 12 11 11 11 11 10 11 11 12 11 11 10 9 9 8 7 6 5 3 1 359 355 351 346 338
154 150 142 126 109 83 50 33 26 25 26 25 22 19 16 13 11 11 11 10 9 9 9 9 9 10 10 10 11 11 10 10 10 9 8 7 5 4 3 1 358 354 350 346
166 166 164 153 123 75 41 27 19 15 13 13 13 12 10 9 9 9 8 7 6 6 6 6 7 8 9 9 10 10 11 10 10 10 10 9 7 7 7 6 3 360 357 354
182 191 198 204 206 343 6 2 359 355 355 354 355 358 360 1 2 2 2 1 1 2 4 4 5 5 6 7 9 9 10 10 10 10 11 11 10 9 9 9 9 7 5 3
211 221 231 239 253 280 310 323 331 336 339 342 345 347 348 350 352 354 355 355 356 357 359 1 2 2 3 4 6 7 8 9 9 10 10 11 12 12 12 12 11 11 9 7
235 242 249 256 265 276 289 304 313 318 322 326 330 333 336 339 341 344 346 347 349 351 353 355 357 358 359 1 2 3 5 7 8 8 9 10 11 12 12 12 12 11 11 9
248 253 259 265 270 274 283 290 296 302 305 311 315 319 323 327 330 333 336 339 342 345 347 349 351 352 353 354 357 359 0 2 4 5 7 8 9 10 11 11 11 11 10 9
255 259 264 268 271 274 280 284 288 291 298 302 305 309 313 317 321 324 327 330 333 336 339 342 344 346 347 349 350 353 355 356 358 1 3 5 6 7 8 9 10 10 11 11
258 262 264 268 271 276 281 283 285 288 292 295 299 304 307 311 314 317 320 323 325 328 331 334 335 337 340 342 344 346 349 351 353 355 357 360 2 4 5 7 8 9 10 12
263 265 268 270 272 276 278 281 283 285 288 292 295 299 302 306 309 312 314 317 319 321 324 326 328 330 332 334 336 338 342 345 347 349 352 354 357 359 2 4 6 8 10 11
264 266 268 270 272 274 276 277 280 283 286 290 294 297 300 303 307 310 312 314 316 317 319 320 321 323 325 327 329 331 334 336 339 342 345 348 351 354 357 360 3 6 8 10
264 266 268 270 272 273 275 278 282 285 288 291 294 297 300 303 305 307 309 310 312 313 315 316 317 318 319 321 322 324 326 328 331 333 337 340 343 346 350 354 358 1 5 9
266 267 269 272 273 275 277 280 283 286 289 292 295 297 299 301 303 304 305 306 308 309 310 312 313 314 315 316 317 318 319 322 324 325 328 331 334 338 342 346 350 354 358 3
Height
5892 5894 5893 5893 5892 5891 5889 5887 5885 5883 5880 5877 5874 5871 5868 5864 5861 5858 5854 5851 5847 5843 5838 5834 5830 5826 5821 5817 5813 5810 5806 5803 5801 5799 5798 5798 5798 5799 5801 5803 5805 5808 5810 5813
5890 5891 5891 5890 5889 5888 5886 5884 5882 5879 5877 5874 5871 5868 5865 5862 5859 5856 5852 5849 5845 5840 5836 5831 5827 5822 5817 5813 5809 5805 5801 5797 5794 5792 5790 5790 5790 5790 5792 5794 5796 5798 5800 5803
5887 5889 5888 5888 5887 5885 5883 5881 5879 5876 5873 5871 5869 5866 5864 5861 5858 5854 5851 5847 5843 5839 5834 5829 5825 5820 5815 5810 5805 5801 5797 5793 5790 5787 5785 5784 5784 5783 5784 5785 5787 5789 5791 5794
5885 5885 5886 5885 5884 5882 5880 5878 5876 5873 5871 5869 5868 5866 5863 5860 5857 5854 5850 5846 5842 5837 5833 5828 5823 5818 5813 5808 5803 5799 5794 5790 5787 5784 5781 5780 5778 5778 5778 5778 5779 5780 5782 5784
5883 5883 5883 5883 5882 5880 5878 5876 5874 5872 5870 5868 5866 5864 5863 5860 5857 5853 5850 5846 5841 5837 5832 5828 5823 5817 5812 5807 5802 5798 5793 5789 5785 5782 5779 5776 5774 5773 5772 5771 5771 5772 5773 5775
5881 5881 5881 5880 5879 5878 5876 5875 5873 5871 5869 5868 5866 5864 5862 5859 5856 5853 5849 5845 5841 5837 5832 5827 5822 5817 5812 5807 5802 5797 5793 5788 5784 5781 5777 5774 5771 5769 5767 5766 5765 5765 5765 5766
5879 5879 5879 5878 5878 5877 5875 5875 5873 5871 5869 5867 5865 5863 5862 5859 5856 5852 5849 5845 5841 5837 5832 5828 5823 5818 5812 5807 5802 5797 5793 5788 5784 5780 5776 5773 5769 5766 5764 5762 5760 5759 5759 5759
5877 5878 5878 5877 5877 5876 5875 5874 5873 5871 5869 5867 5865 5863 5862 5859 5856 5852 5849 5846 5842 5837 5833 5828 5823 5818 5813 5808 5803 5798 5793 5788 5784 5779 5775 5771 5768 5764 5761 5758 5756 5754 5753 5752
5876 5877 5877 5876 5876 5876 5875 5874 5873 5871 5869 5868 5866 5864 5862 5859 5856 5853 5850 5846 5842 5838 5833 5829 5824 5819 5814 5809 5804 5798 5793 5788 5784 5779 5775 5771 5767 5763 5759 5756 5753 5750 5748 5747
5875 5876 5876 5877 5877 5876 5876 5875 5874 5872 5870 5868 5867 5864 5863 5860 5857 5854 5850 5847 5843 5839 5834 5829 5825 5820 5815 5810 5804 5799 5794 5789 5785 5780 5775 5770 5766 5762 5758 5754 5751 5748 5745 5743
5875 5876 5877 5877 5877 5876 5876 5875 5874 5872 5871 5869 5867 5868 5863 5861 5858 5855 5851 5847 5843 5839 5835 5830 5826 5821 5816 5811 5806 5801 5795 5790 5785 5780 5775 5770 5766 5761 5756 5752 5748 5745 5742 5739
5875 5876 5877 5877 5877 5877 5876 5876 5874 5873 5872 5869 5868 5869 5864 5861 5858 5855 5852 5848 5844 5840 5836 5831 5827 5822 5817 5812 5807 5802 5797 5792 5786 5781 5776 5771 5765 5760 5755 5751 5747 5743 5740 5737
5876 5877 5877 5878 5880 5878 5877 5876 5875 5874 5872 5871 5869 5870 5865 5862 5859 5856 5853 5849 5845 5841 5837 5832 5828 5823 5819 5814 5809 5803 5798 5793 5787 5782 5777 5771 5766 5760 5755 5750 5745 5741 5737 5734
5876 5877 5879 5879 5879 5878 5878 5877 5876 5875 5873 5872 5870 5869 5866 5863 5860 5857 5854 5850 5846 5842 5838 5834 5829 5825 5820 5815 5810 5805 5799 5794 5789 5783 5777 5772 5766 5760 5755 5750 5745 5740 5736 5732
5877 5878 5878 5879 5879 5878 5878 5878 5876 5875 5874 5873 5871 5869 5867 5864 5861 5858 5855 5851 5847 5843 5839 5835 5830 5826 5821 5816 5811 5806 5801 5795 5790 5784 5778 5772 5767 5761 5755 5749 5744 5739 5734 5730
5877 5878 5879 5879 5879 5879 5878 5878 5877 5876 5874 5873 5871 5870 5867 5864 5861 5858 5855 5852 5848 5844 5840 5836 5831 5827 5822 5817 5812 5807 5802 5797 5791 5785 5779 5773 5767 5761 5755 5749 5743 5738 5733 5728
5877 5878 5879 5879 5879 5879 5879 5878 5877 5876 5875 5873 5871 5870 5867 5865 5862 5859 5856 5852 5849 5845 5841 5836 5832 5828 5823 5818 5813 5808 5803 5798 5792 5786 5781 5775 5769 5762 5756 5750 5744 5738 5733 5728
5877 5878 5878 5879 5880 5879 5881 5878 5877 5875 5874 5872 5871 5869 5867 5864 5861 5859 5855 5852 5849 5845 5841 5837 5832 5828 5824 5819 5814 5809 5804 5799 5794 5788 5782 5776 5770 5764 5758 5751 5745 5739 5734 5729
5876 5877 5877 5878 5878 5878 5878 5877 5875 5874 5873 5871 5870 5868 5866 5863 5860 5858 5855 5852 5848 5845 5841 5837 5833 5828 5824 5820 5815 5810 5805 5800 5795 5789 5784 5778 5772 5766 5760 5753 5747 5741 5736 5730
5875 5875 5876 5876 5876 5876 5877 5875 5874 5874 5872 5870 5868 5866 5864 5862 5860 5857 5854 5851 5847 5844 5840 5836 5832 5828 5824 5820 5816 5811 5806 5801 5796 5791 5785 5779 5773 5767 5761 5755 5749 5743 5737 5731
5872 5873 5873 5873 5873 5873 5873 5872 5872 5872 5871 5868 5865 5863 5861 5859 5858 5855 5852 5849 5846 5842 5839 5835 5832 5828 5824 5820 5815 5811 5806 5802 5797 5791 5786 5780 5775 5769 5763 5757 5751 5745 5739 5733
5869 5870 5870 5870 5870 5872 5870 5869 5869 5868 5865 5864 5862 5860 5858 5856 5854 5851 5849 5846 5843 5840 5837 5834 5830 5827 5823 5819 5815 5811 5806 5802 5797 5792 5787 5781 5776 5770 5765 5759 5753 5747 5742 5736
5865 5867 5866 5867 5869 5867 5866 5865 5864 5863 5861 5860 5858 5857 5855 5853 5850 5848 5845 5843 5840 5837 5834 5831 5828 5824 5821 5817 5813 5809 5805 5801 5796 5792 5787 5782 5777 5772 5766 5761 5755 5750 5744 5738
5861 5861 5862 5862 5862 5862 5861 5860 5859 5858 5857 5856 5854 5853 5851 5849 5846 5844 5842 5839 5836 5834 5831 5828 5825 5822 5818 5815 5811 5808 5804 5800 5796 5791 5787 5782 5778 5773 5768 5763 5757 5752 5747 5741
5856 5856 5856 5856 5857 5856 5856 5854 5854 5853 5852 5851 5849 5848 5846 5844 5842 5840 5837 5835 5832 5829 5827 5824 5821 5818 5815 5811 5808 5805 5801 5798 5794 5790 5786 5782 5778 5773 5769 5764 5759 5754 5749 5744
5851 5851 5851 5851 5851 5851 5850 5849 5848 5847 5846 5845 5843 5842 5840 5839 5837 5835 5832 5830 5827 5825 5822 5819 5816 5814 5810 5807 5804 5801 5798 5794 5791 5788 5784 5780 5777 5773 5769 5765 5760 5756 5752 5747